Time,TemperatureF,DewpointF,PressureIn,WindDirection,WindDirectionDegrees,WindSpeedMPH,WindSpeedGustMPH,Humidity,HourlyPrecipIn,Conditions,Clouds,dailyrainin,SoftwareType,DateUTC
2015-05-30 00:03:00,53.6,50.5,30.00,NNW,338,4.0,9.6,89,0.00,,,0.00,WUHU216HW,2015-05-30 05:03:00,
2015-05-30 00:08:00,53.6,50.5,30.00,North,0,5.6,7.8,89,0.00,,,0.00,WUHU216HW,2015-05-30 05:08:00,
2015-05-30 00:13:00,53.6,50.5,30.01,NNW,338,1.8,7.8,89,0.00,,,0.00,WUHU216HW,2015-05-30 05:13:00,
2015-05-30 00:18:00,53.6,50.5,30.01,NNW,338,2.2,6.7,89,0.00,,,0.00,WUHU216HW,2015-05-30 05:18:00,
2015-05-30 00:23:00,53.6,50.5,30.01,NNE,23,5.4,9.6,89,0.00,,,0.00,WUHU216HW,2015-05-30 05:23:00,
2015-05-30 00:28:00,53.6,50.5,30.01,NNW,338,4.0,10.7,89,0.00,,,0.00,WUHU216HW,2015-05-30 05:28:00,
2015-05-30 00:33:00,53.6,50.1,30.01,North,0,11.4,11.4,88,0.00,,,0.00,WUHU216HW,2015-05-30 05:33:00,
2015-05-30 00:38:00,53.6,50.1,30.01,North,0,3.4,11.4,88,0.00,,,0.00,WUHU216HW,2015-05-30 05:38:00,
2015-05-30 00:43:00,53.6,49.9,30.01,NNW,338,6.9,9.4,87,0.00,,,0.00,WUHU216HW,2015-05-30 05:43:00,
2015-05-30 00:48:00,53.6,49.9,30.01,North,0,4.0,9.4,87,0.00,,,0.00,WUHU216HW,2015-05-30 05:48:00,
2015-05-30 00:53:00,53.6,49.9,30.01,NNW,338,6.9,9.4,87,0.00,,,0.00,WUHU216HW,2015-05-30 05:53:00,
2015-05-30 00:58:00,53.6,49.5,30.01,NNW,338,9.8,9.8,86,0.00,,,0.00,WUHU216HW,2015-05-30 05:58:00,
2015-05-30 01:03:00,53.8,49.7,30.02,NNE,23,5.8,9.8,86,0.00,,,0.00,WUHU216HW,2015-05-30 06:03:00,
2015-05-30 01:08:00,53.6,49.5,30.01,SE,135,6.3,11.4,86,0.00,,,0.00,WUHU216HW,2015-05-30 06:08:00,
2015-05-30 01:13:00,53.6,49.5,30.01,NNW,338,3.4,11.4,86,0.00,,,0.00,WUHU216HW,2015-05-30 06:13:00,
2015-05-30 01:18:00,53.6,49.2,30.01,North,0,4.5,9.8,85,0.00,,,0.00,WUHU216HW,2015-05-30 06:18:00,
2015-05-30 01:23:00,53.6,49.5,30.01,NNW,338,5.4,11.4,86,0.00,,,0.00,WUHU216HW,2015-05-30 06:23:00,
2015-05-30 01:28:00,53.6,49.2,30.01,ESE,113,2.2,11.4,85,0.00,,,0.00,WUHU216HW,2015-05-30 06:28:00,
2015-05-30 01:33:00,53.6,49.5,30.01,NNW,338,6.3,8.1,86,0.00,,,0.00,WUHU216HW,2015-05-30 06:33:00,
2015-05-30 01:38:00,53.6,49.5,30.01,North,0,1.3,7.2,86,0.00,,,0.00,WUHU216HW,2015-05-30 06:38:00,
2015-05-30 01:43:00,53.6,49.5,30.02,NW,315,2.7,7.2,86,0.00,,,0.00,WUHU216HW,2015-05-30 06:43:00,
2015-05-30 01:48:00,53.6,49.5,30.02,NW,315,3.6,7.6,86,0.00,,,0.00,WUHU216HW,2015-05-30 06:48:00,
2015-05-30 01:53:00,53.5,49.3,30.02,NNW,338,6.3,8.1,86,0.00,,,0.00,WUHU216HW,2015-05-30 06:53:00,
2015-05-30 01:58:00,53.5,49.3,30.02,North,0,4.0,8.1,86,0.00,,,0.00,WUHU216HW,2015-05-30 06:58:00,
2015-05-30 02:03:00,53.3,48.9,30.02,NNE,23,5.1,10.1,85,0.00,,,0.00,WUHU216HW,2015-05-30 07:03:00,
2015-05-30 02:08:00,53.3,48.9,30.03,North,0,7.6,10.7,85,0.00,,,0.00,WUHU216HW,2015-05-30 07:08:00,
2015-05-30 02:13:00,53.3,48.9,30.03,NNW,338,5.6,10.7,85,0.00,,,0.00,WUHU216HW,2015-05-30 07:13:00,
2015-05-30 02:18:00,53.3,48.9,30.03,NNE,23,5.1,7.8,85,0.00,,,0.00,WUHU216HW,2015-05-30 07:18:00,
2015-05-30 02:23:00,53.1,48.4,30.04,NNE,23,3.4,11.0,84,0.00,,,0.00,WUHU216HW,2015-05-30 07:23:00,
2015-05-30 02:28:00,52.9,48.3,30.04,North,0,4.5,11.0,84,0.00,,,0.00,WUHU216HW,2015-05-30 07:28:00,
2015-05-30 02:33:00,52.9,47.9,30.04,NNW,338,7.4,9.8,83,0.00,,,0.00,WUHU216HW,2015-05-30 07:33:00,
2015-05-30 02:38:00,52.7,47.4,30.04,North,0,7.2,10.7,82,0.00,,,0.00,WUHU216HW,2015-05-30 07:38:00,
2015-05-30 02:43:00,52.6,46.9,30.04,North,0,2.0,10.7,81,0.00,,,0.00,WUHU216HW,2015-05-30 07:43:00,
2015-05-30 02:48:00,52.4,46.7,30.05,North,0,4.7,13.0,81,0.00,,,0.00,WUHU216HW,2015-05-30 07:48:00,
2015-05-30 02:53:00,52.2,46.5,30.05,North,0,6.0,13.0,81,0.00,,,0.00,WUHU216HW,2015-05-30 07:53:00,
2015-05-30 02:58:00,52.0,46.4,30.05,NNE,23,1.8,11.9,81,0.00,,,0.00,WUHU216HW,2015-05-30 07:58:00,
2015-05-30 03:03:00,51.8,46.2,30.05,NNE,23,7.8,11.9,81,0.00,,,0.00,WUHU216HW,2015-05-30 08:03:00,
2015-05-30 03:08:00,51.7,45.4,30.05,North,0,6.3,11.9,79,0.00,,,0.00,WUHU216HW,2015-05-30 08:08:00,
2015-05-30 03:13:00,51.5,45.5,30.05,North,0,6.7,11.9,80,0.00,,,0.00,WUHU216HW,2015-05-30 08:13:00,
2015-05-30 03:18:00,51.5,45.2,30.05,North,0,5.4,11.0,79,0.00,,,0.00,WUHU216HW,2015-05-30 08:18:00,
2015-05-30 03:23:00,51.3,45.0,30.05,NNW,338,2.5,11.0,79,0.00,,,0.00,WUHU216HW,2015-05-30 08:23:00,
2015-05-30 03:28:00,51.1,44.8,30.06,NW,315,4.0,12.8,79,0.00,,,0.00,WUHU216HW,2015-05-30 08:28:00,
2015-05-30 03:33:00,51.1,44.8,30.06,NNE,23,6.5,12.8,79,0.00,,,0.00,WUHU216HW,2015-05-30 08:33:00,
2015-05-30 03:38:00,50.9,44.3,30.06,North,0,12.8,12.8,78,0.00,,,0.00,WUHU216HW,2015-05-30 08:38:00,
2015-05-30 03:43:00,50.9,44.3,30.06,North,0,4.7,12.8,78,0.00,,,0.00,WUHU216HW,2015-05-30 08:43:00,
2015-05-30 03:48:00,50.8,44.1,30.06,North,0,6.7,11.6,78,0.00,,,0.00,WUHU216HW,2015-05-30 08:48:00,
2015-05-30 03:53:00,50.8,44.1,30.07,NNE,23,4.9,11.4,78,0.00,,,0.00,WUHU216HW,2015-05-30 08:53:00,
2015-05-30 03:58:00,50.8,44.1,30.06,North,0,2.9,11.4,78,0.00,,,0.00,WUHU216HW,2015-05-30 08:58:00,
2015-05-30 04:03:00,50.8,44.1,30.06,North,0,6.9,10.7,78,0.00,,,0.00,WUHU216HW,2015-05-30 09:03:00,
2015-05-30 04:08:00,50.6,43.9,30.07,North,0,2.7,10.7,78,0.00,,,0.00,WUHU216HW,2015-05-30 09:08:00,
2015-05-30 04:13:00,50.6,43.9,30.07,North,0,6.3,10.1,78,0.00,,,0.00,WUHU216HW,2015-05-30 09:13:00,
2015-05-30 04:18:00,50.6,43.9,30.07,NW,315,5.4,9.2,78,0.00,,,0.00,WUHU216HW,2015-05-30 09:18:00,
2015-05-30 04:23:00,50.4,43.7,30.07,NW,315,6.9,9.4,78,0.00,,,0.00,WUHU216HW,2015-05-30 09:23:00,
2015-05-30 04:28:00,50.4,43.7,30.07,SSE,158,3.6,12.1,78,0.00,,,0.00,WUHU216HW,2015-05-30 09:28:00,
2015-05-30 04:33:00,50.2,43.6,30.07,NNW,338,5.1,12.1,78,0.00,,,0.00,WUHU216HW,2015-05-30 09:33:00,
2015-05-30 04:38:00,50.2,43.6,30.07,North,0,2.5,8.5,78,0.00,,,0.00,WUHU216HW,2015-05-30 09:38:00,
2015-05-30 04:43:00,50.0,43.4,30.07,North,0,8.7,11.6,78,0.00,,,0.00,WUHU216HW,2015-05-30 09:43:00,
2015-05-30 04:48:00,50.0,43.4,30.07,NNW,338,4.0,11.6,78,0.00,,,0.00,WUHU216HW,2015-05-30 09:48:00,
2015-05-30 04:53:00,50.0,43.4,30.07,North,0,4.0,9.8,78,0.00,,,0.00,WUHU216HW,2015-05-30 09:53:00,
2015-05-30 04:58:00,49.9,43.2,30.07,NNE,23,9.2,9.8,78,0.00,,,0.00,WUHU216HW,2015-05-30 09:58:00,
2015-05-30 05:03:00,49.7,43.0,30.07,NNW,338,6.3,9.2,78,0.00,,,0.00,WUHU216HW,2015-05-30 10:03:00,
2015-05-30 05:08:00,49.5,42.8,30.08,NNW,338,3.6,11.9,78,0.00,,,0.00,WUHU216HW,2015-05-30 10:08:00,
2015-05-30 05:13:00,49.3,42.7,30.08,NW,315,5.1,11.9,78,0.00,,,0.00,WUHU216HW,2015-05-30 10:13:00,
2015-05-30 05:18:00,49.1,42.5,30.08,North,0,4.7,7.6,78,0.00,,,0.00,WUHU216HW,2015-05-30 10:18:00,
2015-05-30 05:23:00,48.8,42.5,30.08,North,0,8.1,10.5,79,0.00,,,0.00,WUHU216HW,2015-05-30 10:23:00,
2015-05-30 05:28:00,48.6,42.3,30.08,NNE,23,8.7,10.5,79,0.00,,,0.00,WUHU216HW,2015-05-30 10:28:00,
2015-05-30 05:33:00,48.2,41.9,30.08,North,0,4.0,8.7,79,0.00,,,0.00,WUHU216HW,2015-05-30 10:33:00,
2015-05-30 05:38:00,48.1,41.8,30.09,NNE,23,3.8,8.7,79,0.00,,,0.00,WUHU216HW,2015-05-30 10:38:00,
2015-05-30 05:48:00,47.9,41.7,30.10,North,0,4.0,11.0,79,0.00,,,0.00,WUHU216HW,2015-05-30 10:48:00,
2015-05-30 05:53:00,47.9,41.7,30.10,North,0,6.3,10.3,79,0.00,,,0.00,WUHU216HW,2015-05-30 10:53:00,